Time,TemperatureF,DewpointF,PressureIn,WindDirection,WindDirectionDegrees,WindSpeedMPH,WindSpeedGustMPH,Humidity,HourlyPrecipIn,Conditions,Clouds,dailyrainin,SoftwareType,DateUTC
2013-11-11 00:00:00,33.0,25.6,30.18,NNE,22,9.0,21.0,74,0.00,,,-99.99,Weather View 32 v60,2013-11-11 06:00:00,
2013-11-11 00:05:00,33.0,25.6,30.18,NE,45,11.0,21.0,74,0.00,,,-99.99,Weather View 32 v60,2013-11-11 06:05:00,
2013-11-11 00:10:00,32.0,24.3,30.18,NE,45,9.0,21.0,73,0.00,,,-99.99,Weather View 32 v60,2013-11-11 06:10:00,
2013-11-11 00:15:00,32.0,24.3,30.18,NNE,22,4.0,21.0,73,0.00,,,-99.99,Weather View 32 v60,2013-11-11 06:15:00,
2013-11-11 00:20:00,32.0,24.6,30.19,NE,45,6.0,21.0,74,0.00,,,-99.99,Weather View 32 v60,2013-11-11 06:20:00,
2013-11-11 00:25:00,32.0,24.6,30.19,North,0,6.0,21.0,74,0.00,,,-99.99,Weather View 32 v60,2013-11-11 06:25:00,
2013-11-11 00:30:00,32.0,24.6,30.19,NNE,22,10.0,21.0,74,0.00,,,-99.99,Weather View 32 v60,2013-11-11 06:30:00,
2013-11-11 00:35:00,32.0,24.6,30.20,NNE,22,10.0,21.0,74,0.00,,,-99.99,Weather View 32 v60,2013-11-11 06:35:00,
2013-11-11 00:40:00,31.0,23.7,30.20,NNE,22,9.0,21.0,74,0.00,,,-99.99,Weather View 32 v60,2013-11-11 06:40:00,
2013-11-11 00:45:00,31.0,23.4,30.20,North,0,8.0,18.0,73,0.00,,,-99.99,Weather View 32 v60,2013-11-11 06:45:00,
2013-11-11 00:50:00,31.0,23.4,30.20,NE,45,9.0,19.0,73,0.00,,,-99.99,Weather View 32 v60,2013-11-11 06:50:00,
2013-11-11 00:55:00,30.0,22.4,30.21,NNE,22,6.0,19.0,73,0.00,,,-99.99,Weather View 32 v60,2013-11-11 06:55:00,
2013-11-11 01:00:00,30.0,22.4,30.22,ESE,112,4.0,19.0,73,0.00,,,-99.99,Weather View 32 v60,2013-11-11 07:00:00,
2013-11-11 01:05:00,29.0,21.1,30.22,North,0,9.0,19.0,72,0.00,,,-99.99,Weather View 32 v60,2013-11-11 07:05:00,
2013-11-11 01:10:00,29.0,20.8,30.23,East,90,4.0,19.0,71,0.00,,,-99.99,Weather View 32 v60,2013-11-11 07:10:00,
2013-11-11 01:15:00,28.0,19.8,30.23,NNE,22,8.0,19.0,71,0.00,,,-99.99,Weather View 32 v60,2013-11-11 07:15:00,
2013-11-11 01:20:00,28.0,19.5,30.23,NNE,22,10.0,19.0,70,0.00,,,-99.99,Weather View 32 v60,2013-11-11 07:20:00,
2013-11-11 01:25:00,28.0,18.8,30.23,NE,45,7.0,20.0,68,0.00,,,-99.99,Weather View 32 v60,2013-11-11 07:25:00,
2013-11-11 01:30:00,27.0,17.5,30.23,North,0,14.0,20.0,67,0.00,,,-99.99,Weather View 32 v60,2013-11-11 07:30:00,
2013-11-11 01:35:00,27.0,16.1,30.24,NNE,22,4.0,20.0,63,0.00,,,-99.99,Weather View 32 v60,2013-11-11 07:35:00,
2013-11-11 01:40:00,27.0,16.1,30.24,North,0,7.0,20.0,63,0.00,,,-99.99,Weather View 32 v60,2013-11-11 07:40:00,
2013-11-11 01:45:00,27.0,15.3,30.25,North,0,8.0,20.0,61,0.00,,,-99.99,Weather View 32 v60,2013-11-11 07:45:00,
2013-11-11 01:50:00,27.0,13.8,30.25,NE,45,6.0,20.0,57,0.00,,,-99.99,Weather View 32 v60,2013-11-11 07:50:00,
2013-11-11 01:55:00,26.0,12.4,30.25,NE,45,11.0,20.0,56,0.00,,,-99.99,Weather View 32 v60,2013-11-11 07:55:00,
2013-11-11 02:00:00,26.0,11.6,30.26,North,0,9.0,20.0,54,0.00,,,-99.99,Weather View 32 v60,2013-11-11 08:00:00,
2013-11-11 02:05:00,26.0,11.6,30.26,North,0,5.0,20.0,54,0.00,,,-99.99,Weather View 32 v60,2013-11-11 08:05:00,
2013-11-11 02:10:00,26.0,11.6,30.26,NNE,22,5.0,20.0,54,0.00,,,-99.99,Weather View 32 v60,2013-11-11 08:10:00,
2013-11-11 02:15:00,26.0,12.0,30.27,North,0,10.0,20.0,55,0.00,,,-99.99,Weather View 32 v60,2013-11-11 08:15:00,
2013-11-11 02:20:00,26.0,12.0,30.27,NE,45,3.0,20.0,55,0.00,,,-99.99,Weather View 32 v60,2013-11-11 08:20:00,
2013-11-11 02:25:00,26.0,12.4,30.27,NE,45,5.0,19.0,56,0.00,,,-99.99,Weather View 32 v60,2013-11-11 08:25:00,
2013-11-11 02:30:00,25.0,11.9,30.27,NE,45,8.0,19.0,57,0.00,,,-99.99,Weather View 32 v60,2013-11-11 08:30:00,
2013-11-11 02:35:00,25.0,12.3,30.27,East,90,5.0,19.0,58,0.00,,,-99.99,Weather View 32 v60,2013-11-11 08:35:00,
2013-11-11 02:40:00,25.0,12.3,30.28,NNE,22,3.0,19.0,58,0.00,,,-99.99,Weather View 32 v60,2013-11-11 08:40:00,
2013-11-11 02:45:00,25.0,12.3,30.28,NE,45,5.0,19.0,58,0.00,,,-99.99,Weather View 32 v60,2013-11-11 08:45:00,
2013-11-11 02:50:00,25.0,12.7,30.28,NNE,22,5.0,19.0,59,0.00,,,-99.99,Weather View 32 v60,2013-11-11 08:50:00,
2013-11-11 02:55:00,25.0,12.7,30.29,NE,45,5.0,19.0,59,0.00,,,-99.99,Weather View 32 v60,2013-11-11 08:55:00,
2013-11-11 03:00:00,24.0,11.7,30.29,NNE,22,7.0,19.0,59,0.00,,,-99.99,Weather View 32 v60,2013-11-11 09:00:00,
2013-11-11 03:05:00,24.0,12.1,30.30,ENE,68,9.0,19.0,60,0.00,,,-99.99,Weather View 32 v60,2013-11-11 09:05:00,
2013-11-11 03:10:00,24.0,12.1,30.30,NE,45,10.0,18.0,60,0.00,,,-99.99,Weather View 32 v60,2013-11-11 09:10:00,
2013-11-11 03:15:00,24.0,12.1,30.30,North,0,6.0,18.0,60,0.00,,,-99.99,Weather View 32 v60,2013-11-11 09:15:00,
2013-11-11 03:20:00,23.0,11.2,30.31,NE,45,14.0,18.0,60,0.00,,,-99.99,Weather View 32 v60,2013-11-11 09:20:00,
2013-11-11 03:25:00,23.0,11.2,30.32,NE,45,11.0,18.0,60,0.00,,,-99.99,Weather View 32 v60,2013-11-11 09:25:00,
2013-11-11 03:30:00,23.0,11.2,30.32,NNE,22,7.0,18.0,60,0.00,,,-99.99,Weather View 32 v60,2013-11-11 09:30:00,
2013-11-11 03:35:00,22.0,10.2,30.32,NNE,22,6.0,18.0,60,0.00,,,-99.99,Weather View 32 v60,2013-11-11 09:35:00,
2013-11-11 03:40:00,22.0,10.2,30.32,ENE,68,9.0,18.0,60,0.00,,,-99.99,Weather View 32 v60,2013-11-11 09:40:00,
2013-11-11 03:45:00,22.0,10.2,30.33,ENE,68,10.0,18.0,60,0.00,,,-99.99,Weather View 32 v60,2013-11-11 09:45:00,
2013-11-11 03:50:00,21.0,9.3,30.33,NNW,338,9.0,19.0,60,0.00,,,-99.99,Weather View 32 v60,2013-11-11 09:50:00,
2013-11-11 03:55:00,21.0,9.3,30.33,NNE,22,6.0,19.0,60,0.00,,,-99.99,Weather View 32 v60,2013-11-11 09:55:00,
2013-11-11 04:00:00,21.0,9.3,30.34,NNE,22,10.0,19.0,60,0.00,,,-99.99,Weather View 32 v60,2013-11-11 10:00:00,
2013-11-11 04:05:00,21.0,9.3,30.34,NNE,22,8.0,19.0,60,0.00,,,-99.99,Weather View 32 v60,2013-11-11 10:05:00,
2013-11-11 04:10:00,20.0,8.3,30.34,NNE,22,9.0,19.0,60,0.00,,,-99.99,Weather View 32 v60,2013-11-11 10:10:00,
2013-11-11 04:15:00,20.0,8.3,30.35,NE,45,12.0,19.0,60,0.00,,,-99.99,Weather View 32 v60,2013-11-11 10:15:00,
2013-11-11 04:20:00,20.0,8.3,30.35,North,0,7.0,19.0,60,0.00,,,-99.99,Weather View 32 v60,2013-11-11 10:20:00,
2013-11-11 04:25:00,20.0,8.3,30.36,North,0,10.0,19.0,60,0.00,,,-99.99,Weather View 32 v60,2013-11-11 10:25:00,
2013-11-11 04:35:00,19.0,7.4,30.36,NNE,22,16.0,19.0,60,0.00,,,-99.99,Weather View 32 v60,2013-11-11 10:35:00,
2013-11-11 04:40:00,19.0,7.8,30.36,NE,45,5.0,19.0,61,0.00,,,-99.99,Weather View 32 v60,2013-11-11 10:40:00,
2013-11-11 04:50:00,19.0,7.8,30.37,ESE,112,3.0,18.0,61,0.00,,,-99.99,Weather View 32 v60,2013-11-11 10:50:00,
2013-11-11 04:55:00,19.0,7.8,30.37,NNE,22,13.0,18.0,61,0.00,,,-99.99,Weather View 32 v60,2013-11-11 10:55:00,
2013-11-11 05:10:00,20.0,8.3,30.34,NNE,22,9.0,19.0,60,0.00,,,-99.99,Weather View 32 v60,2013-11-11 11:10:00,
2013-11-11 05:15:00,19.0,7.8,30.38,North,0,8.0,19.0,61,0.00,,,-99.99,Weather View 32 v60,2013-11-11 11:15:00,
2013-11-11 05:30:00,20.0,8.3,30.36,NNE,22,10.0,19.0,60,0.00,,,-99.99,Weather View 32 v60,2013-11-11 11:30:00,
2013-11-11 05:40:00,18.0,7.2,30.40,NE,45,7.0,19.0,62,0.00,,,-99.99,Weather View 32 v60,2013-11-11 11:40:00,
2013-11-11 05:45:00,19.0,7.8,30.36,NNE,22,10.0,19.0,61,0.00,,,-99.99,Weather View 32 v60,2013-11-11 11:45:00,
2013-11-11 05:50:00,18.0,7.2,30.41,North,0,9.0,19.0,62,0.00,,,-99.99,Weather View 32 v60,2013-11-11 11:50:00,
2013-11-11 05:55:00,19.0,8.5,30.41,NE,45,9.0,19.0,63,0.00,,,-99.99,Weather View 32 v60,2013-11-11 11:55:00,
2013-11-11 06:00:00,19.0,7.8,30.37,East,90,2.0,18.0,61,0.00,,,-99.99,Weather View 32 v60,2013-11-11 12:00:00,
2013-11-11 06:05:00,19.0,7.8,30.38,East,90,3.0,19.0,61,0.00,,,-99.99,Weather View 32 v60,2013-11-11 12:05:00,
2013-11-11 06:10:00,18.0,7.2,30.42,NNE,22,10.0,18.0,62,0.00,,,-99.99,Weather View 32 v60,2013-11-11 12:10:00,
2013-11-11 06:15:00,18.0,7.2,30.42,NNE,22,7.0,18.0,62,0.00,,,-99.99,Weather View 32 v60,2013-11-11 12:15:00,
2013-11-11 06:20:00,19.0,8.1,30.38,North,0,5.0,19.0,62,0.00,,,-99.99,Weather View 32 v60,2013-11-11 12:20:00,
2013-11-11 06:25:00,19.0,8.1,30.39,NNE,22,7.0,19.0,62,0.00,,,-99.99,Weather View 32 v60,2013-11-11 12:25:00,
2013-11-11 06:30:00,18.0,7.2,30.44,NE,45,9.0,18.0,62,0.00,,,-99.99,Weather View 32 v60,2013-11-11 12:30:00,
2013-11-11 06:35:00,18.0,7.2,30.39,NNE,22,8.0,19.0,62,0.00,,,-99.99,Weather View 32 v60,2013-11-11 12:35:00,
2013-11-11 06:40:00,18.0,7.2,30.44,ENE,68,3.0,18.0,62,0.00,,,-99.99,Weather View 32 v60,2013-11-11 12:40:00,
2013-11-11 07:00:00,19.0,8.5,30.41,NNE,22,6.0,19.0,63,0.00,,,-99.99,Weather View 32 v60,2013-11-11 13:00:00,
2013-11-11 07:05:00,18.0,7.2,30.45,NNE,22,6.0,18.0,62,0.00,,,-99.99,Weather View 32 v60,2013-11-11 13:05:00,
2013-11-11 07:10:00,18.0,7.2,30.46,NNE,22,8.0,16.0,62,0.00,,,-99.99,Weather View 32 v60,2013-11-11 13:10:00,
2013-11-11 07:11:00,18.0,7.2,30.42,NNE,22,10.0,18.0,62,0.00,,,-99.99,Weather View 32 v60,2013-11-11 13:11:00,
2013-11-11 07:20:00,18.0,7.2,30.43,North,0,8.0,18.0,62,0.00,,,-99.99,Weather View 32 v60,2013-11-11 13:20:00,
2013-11-11 07:25:00,18.0,7.2,30.43,NNE,22,10.0,18.0,62,0.00,,,-99.99,Weather View 32 v60,2013-11-11 13:25:00,
2013-11-11 07:35:00,18.0,7.2,30.43,NE,45,7.0,18.0,62,0.00,,,-99.99,Weather View 32 v60,2013-11-11 13:35:00,
2013-11-11 07:45:00,18.0,7.2,30.44,NE,45,3.0,18.0,62,0.00,,,-99.99,Weather View 32 v60,2013-11-11 13:45:00,
2013-11-11 07:50:00,18.0,7.2,30.44,NE,45,10.0,18.0,62,0.00,,,-99.99,Weather View 32 v60,2013-11-11 13:50:00,
2013-11-11 07:55:00,18.0,7.2,30.45,East,90,6.0,18.0,62,0.00,,,-99.99,Weather View 32 v60,2013-11-11 13:55:00,
2013-11-11 08:00:00,18.0,7.2,30.45,ENE,68,6.0,18.0,62,0.00,,,-99.99,Weather View 32 v60,2013-11-11 14:00:00,
2013-11-11 08:10:00,18.0,7.2,30.46,NNE,22,8.0,16.0,62,0.00,,,-99.99,Weather View 32 v60,2013-11-11 14:10:00,
2013-11-11 08:15:00,18.0,7.2,30.46,NNE,22,9.0,17.0,62,0.00,,,-99.99,Weather View 32 v60,2013-11-11 14:15:00,
2013-11-11 08:20:00,18.0,7.2,30.46,North,0,8.0,17.0,62,0.00,,,-99.99,Weather View 32 v60,2013-11-11 14:20:00,
2013-11-11 08:25:00,18.0,7.2,30.46,North,0,3.0,17.0,62,0.00,,,-99.99,Weather View 32 v60,2013-11-11 14:25:00,
2013-11-11 08:30:00,18.0,7.2,30.46,ESE,112,3.0,17.0,62,0.00,,,-99.99,Weather View 32 v60,2013-11-11 14:30:00,
2013-11-11 08:35:00,18.0,6.5,30.48,North,0,7.0,18.0,60,0.00,,,-99.99,Weather View 32 v60,2013-11-11 14:35:00,
2013-11-11 08:40:00,18.0,7.2,30.47,North,0,13.0,17.0,62,0.00,,,-99.99,Weather View 32 v60,2013-11-11 14:40:00,
2013-11-11 08:45:00,18.0,6.8,30.47,NNE,22,7.0,17.0,61,0.00,,,-99.99,Weather View 32 v60,2013-11-11 14:45:00,
2013-11-11 09:00:00,18.0,6.8,30.48,NNE,22,5.0,18.0,61,0.00,,,-99.99,Weather View 32 v60,2013-11-11 15:00:00,
2013-11-11 09:05:00,18.0,6.8,30.48,NE,45,12.0,18.0,61,0.00,,,-99.99,Weather View 32 v60,2013-11-11 15:05:00,
2013-11-11 09:10:00,18.0,6.8,30.48,NE,45,4.0,18.0,61,0.00,,,-99.99,Weather View 32 v60,2013-11-11 15:10:00,
2013-11-11 09:15:00,18.0,6.8,30.48,North,0,10.0,18.0,61,0.00,,,-99.99,Weather View 32 v60,2013-11-11 15:15:00,
2013-11-11 09:20:00,18.0,6.8,30.48,NE,45,5.0,18.0,61,0.00,,,-99.99,Weather View 32 v60,2013-11-11 15:20:00,
2013-11-11 09:30:00,21.0,7.8,30.49,ENE,68,4.0,18.0,56,0.00,,,-99.99,Weather View 32 v60,2013-11-11 15:30:00,
2013-11-11 09:40:00,18.0,6.5,30.48,North,0,11.0,18.0,60,0.00,,,-99.99,Weather View 32 v60,2013-11-11 15:40:00,
2013-11-11 09:45:00,18.0,6.5,30.48,NNE,22,8.0,18.0,60,0.00,,,-99.99,Weather View 32 v60,2013-11-11 15:45:00,
2013-11-11 09:50:00,19.0,7.4,30.49,North,0,8.0,18.0,60,0.00,,,-99.99,Weather View 32 v60,2013-11-11 15:50:00,
2013-11-11 09:55:00,19.0,7.4,30.49,NNE,22,6.0,18.0,60,0.00,,,-99.99,Weather View 32 v60,2013-11-11 15:55:00,
2013-11-11 10:00:00,19.0,7.0,30.49,NNW,338,5.0,18.0,59,0.00,,,-99.99,Weather View 32 v60,2013-11-11 16:00:00,
2013-11-11 10:05:00,20.0,8.0,30.49,NE,45,4.0,18.0,59,0.00,,,-99.99,Weather View 32 v60,2013-11-11 16:05:00,
2013-11-11 10:10:00,22.0,7.1,30.50,North,0,10.0,18.0,52,0.00,,,-99.99,Weather View 32 v60,2013-11-11 16:10:00,
2013-11-11 10:13:00,20.0,8.0,30.49,NNE,22,11.0,18.0,59,0.00,,,-99.99,Weather View 32 v60,2013-11-11 16:13:00,
2013-11-11 10:15:00,23.0,8.0,30.50,NNE,22,14.0,18.0,52,0.00,,,-99.99,Weather View 32 v60,2013-11-11 16:15:00,
2013-11-11 10:20:00,21.0,8.2,30.49,NNE,22,6.0,18.0,57,0.00,,,-99.99,Weather View 32 v60,2013-11-11 16:20:00,
2013-11-11 10:25:00,21.0,8.2,30.49,ENE,68,8.0,18.0,57,0.00,,,-99.99,Weather View 32 v60,2013-11-11 16:25:00,
2013-11-11 10:30:00,23.0,7.6,30.51,North,0,6.0,17.0,51,0.00,,,-99.99,Weather View 32 v60,2013-11-11 16:30:00,
2013-11-11 10:35:00,22.0,8.7,30.49,NE,45,8.0,18.0,56,0.00,,,-99.99,Weather View 32 v60,2013-11-11 16:35:00,
2013-11-11 10:45:00,22.0,8.3,30.50,NE,45,8.0,18.0,55,0.00,,,-99.99,Weather View 32 v60,2013-11-11 16:45:00,
2013-11-11 10:50:00,22.0,8.3,30.50,North,0,12.0,18.0,55,0.00,,,-99.99,Weather View 32 v60,2013-11-11 16:50:00,
2013-11-11 10:55:00,24.0,7.6,30.50,NNE,22,5.0,18.0,49,0.00,,,-99.99,Weather View 32 v60,2013-11-11 16:55:00,
2013-11-11 11:05:00,22.0,7.1,30.50,NNE,22,6.0,18.0,52,0.00,,,-99.99,Weather View 32 v60,2013-11-11 17:05:00,
2013-11-11 11:10:00,22.0,7.1,30.50,North,0,10.0,18.0,52,0.00,,,-99.99,Weather View 32 v60,2013-11-11 17:10:00,
2013-11-11 11:20:00,23.0,8.0,30.50,NW,315,5.0,17.0,52,0.00,,,-99.99,Weather View 32 v60,2013-11-11 17:20:00,
2013-11-11 11:25:00,23.0,8.0,30.50,NNE,22,7.0,17.0,52,0.00,,,-99.99,Weather View 32 v60,2013-11-11 17:25:00,
2013-11-11 11:35:00,23.0,7.6,30.51,North,0,11.0,17.0,51,0.00,,,-99.99,Weather View 32 v60,2013-11-11 17:35:00,
2013-11-11 11:40:00,24.0,7.6,30.51,WNW,292,1.0,18.0,49,0.00,,,-99.99,Weather View 32 v60,2013-11-11 17:40:00,
2013-11-11 11:45:00,24.0,7.6,30.51,NNE,22,9.0,18.0,49,0.00,,,-99.99,Weather View 32 v60,2013-11-11 17:45:00,
2013-11-11 11:50:00,24.0,7.6,30.50,North,0,10.0,18.0,49,0.00,,,-99.99,Weather View 32 v60,2013-11-11 17:50:00,
2013-11-11 12:00:00,24.0,7.6,30.50,North,0,12.0,18.0,49,0.00,,,-99.99,Weather View 32 v60,2013-11-11 18:00:00,
2013-11-11 12:05:00,24.0,7.6,30.50,NNE,22,8.0,18.0,49,0.00,,,-99.99,Weather View 32 v60,2013-11-11 18:05:00,
2013-11-11 12:10:00,25.0,8.5,30.50,North,0,5.0,18.0,49,0.00,,,-99.99,Weather View 32 v60,2013-11-11 18:10:00,
2013-11-11 12:15:00,24.0,7.1,30.50,NNE,22,11.0,18.0,48,0.00,,,-99.99,Weather View 32 v60,2013-11-11 18:15:00,
2013-11-11 12:20:00,24.0,7.1,30.50,North,0,5.0,18.0,48,0.00,,,-99.99,Weather View 32 v60,2013-11-11 18:20:00,
2013-11-11 12:25:00,25.0,8.1,30.50,North,0,7.0,18.0,48,0.00,,,-99.99,Weather View 32 v60,2013-11-11 18:25:00,
2013-11-11 12:30:00,25.0,8.1,30.49,North,0,5.0,18.0,48,0.00,,,-99.99,Weather View 32 v60,2013-11-11 18:30:00,
2013-11-11 12:35:00,25.0,8.1,30.49,ENE,68,5.0,18.0,48,0.00,,,-99.99,Weather View 32 v60,2013-11-11 18:35:00,
2013-11-11 12:45:00,25.0,8.1,30.50,NE,45,5.0,16.0,48,0.00,,,-99.99,Weather View 32 v60,2013-11-11 18:45:00,
2013-11-11 12:50:00,25.0,8.1,30.50,North,0,10.0,18.0,48,0.00,,,-99.99,Weather View 32 v60,2013-11-11 18:50:00,
2013-11-11 12:55:00,25.0,7.6,30.51,ENE,68,5.0,18.0,47,0.00,,,-99.99,Weather View 32 v60,2013-11-11 18:55:00,
2013-11-11 13:00:00,25.0,8.1,30.50,NNE,22,9.0,18.0,48,0.00,,,-99.99,Weather View 32 v60,2013-11-11 19:00:00,
2013-11-11 13:05:00,25.0,8.1,30.51,North,0,13.0,18.0,48,0.00,,,-99.99,Weather View 32 v60,2013-11-11 19:05:00,
2013-11-11 13:10:00,25.0,8.1,30.51,North,0,10.0,18.0,48,0.00,,,-99.99,Weather View 32 v60,2013-11-11 19:10:00,
2013-11-11 13:15:00,25.0,8.1,30.51,NNE,22,7.0,18.0,48,0.00,,,-99.99,Weather View 32 v60,2013-11-11 19:15:00,
2013-11-11 13:25:00,24.0,6.7,30.51,North,0,5.0,18.0,47,0.00,,,-99.99,Weather View 32 v60,2013-11-11 19:25:00,
2013-11-11 13:30:00,24.0,6.7,30.51,NNE,22,6.0,18.0,47,0.00,,,-99.99,Weather View 32 v60,2013-11-11 19:30:00,
2013-11-11 13:35:00,24.0,6.7,30.51,NE,45,4.0,18.0,47,0.00,,,-99.99,Weather View 32 v60,2013-11-11 19:35:00,
2013-11-11 13:40:00,25.0,7.6,30.52,North,0,8.0,18.0,47,0.00,,,-99.99,Weather View 32 v60,2013-11-11 19:40:00,
2013-11-11 13:45:00,25.0,7.6,30.51,NW,315,7.0,18.0,47,0.00,,,-99.99,Weather View 32 v60,2013-11-11 19:45:00,
2013-11-11 13:55:00,25.0,7.1,30.51,NNW,338,8.0,18.0,46,0.00,,,-99.99,Weather View 32 v60,2013-11-11 19:55:00,
2013-11-11 14:05:00,25.0,7.1,30.51,NNE,22,8.0,18.0,46,0.00,,,-99.99,Weather View 32 v60,2013-11-11 20:05:00,
2013-11-11 14:10:00,25.0,7.1,30.52,NNE,22,11.0,18.0,46,0.00,,,-99.99,Weather View 32 v60,2013-11-11 20:10:00,
2013-11-11 14:15:00,25.0,7.1,30.52,NNW,338,5.0,18.0,46,0.00,,,-99.99,Weather View 32 v60,2013-11-11 20:15:00,
2013-11-11 14:25:00,25.0,7.1,30.52,NE,45,5.0,18.0,46,0.00,,,-99.99,Weather View 32 v60,2013-11-11 20:25:00,
2013-11-11 14:35:00,25.0,6.6,30.53,North,0,6.0,18.0,45,0.00,,,-99.99,Weather View 32 v60,2013-11-11 20:35:00,
2013-11-11 14:40:00,25.0,6.6,30.53,North,0,10.0,18.0,45,0.00,,,-99.99,Weather View 32 v60,2013-11-11 20:40:00,
2013-11-11 14:45:00,25.0,6.6,30.53,North,0,10.0,18.0,45,0.00,,,-99.99,Weather View 32 v60,2013-11-11 20:45:00,
2013-11-11 14:50:00,25.0,7.1,30.53,NNW,338,6.0,18.0,46,0.00,,,-99.99,Weather View 32 v60,2013-11-11 20:50:00,
2013-11-11 14:55:00,25.0,7.1,30.53,North,0,5.0,18.0,46,0.00,,,-99.99,Weather View 32 v60,2013-11-11 20:55:00,
2013-11-11 15:00:00,25.0,7.1,30.53,NNE,22,10.0,18.0,46,0.00,,,-99.99,Weather View 32 v60,2013-11-11 21:00:00,
2013-11-11 15:05:00,25.0,7.1,30.54,NE,45,5.0,18.0,46,0.00,,,-99.99,Weather View 32 v60,2013-11-11 21:05:00,
2013-11-11 15:15:00,25.0,7.1,30.54,NNE,22,9.0,18.0,46,0.00,,,-99.99,Weather View 32 v60,2013-11-11 21:15:00,
2013-11-11 15:20:00,24.0,5.7,30.54,NNE,22,6.0,16.0,45,0.00,,,-99.99,Weather View 32 v60,2013-11-11 21:20:00,
2013-11-11 15:25:00,24.0,5.7,30.54,NNE,22,5.0,16.0,45,0.00,,,-99.99,Weather View 32 v60,2013-11-11 21:25:00,
2013-11-11 15:30:00,24.0,5.7,30.55,NNE,22,8.0,15.0,45,0.00,,,-99.99,Weather View 32 v60,2013-11-11 21:30:00,
2013-11-11 15:35:00,24.0,5.7,30.55,NNE,22,8.0,15.0,45,0.00,,,-99.99,Weather View 32 v60,2013-11-11 21:35:00,
2013-11-11 15:40:00,24.0,5.7,30.55,NNE,22,7.0,15.0,45,0.00,,,-99.99,Weather View 32 v60,2013-11-11 21:40:00,
2013-11-11 15:45:00,24.0,5.7,30.55,NNE,22,6.0,17.0,45,0.00,,,-99.99,Weather View 32 v60,2013-11-11 21:45:00,
2013-11-11 15:50:00,24.0,5.7,30.55,NE,45,5.0,17.0,45,0.00,,,-99.99,Weather View 32 v60,2013-11-11 21:50:00,
2013-11-11 15:55:00,23.0,4.8,30.55,NE,45,10.0,17.0,45,0.00,,,-99.99,Weather View 32 v60,2013-11-11 21:55:00,
2013-11-11 16:00:00,23.0,4.8,30.55,NNE,22,8.0,17.0,45,0.00,,,-99.99,Weather View 32 v60,2013-11-11 22:00:00,
2013-11-11 16:05:00,23.0,4.8,30.55,NE,45,6.0,17.0,45,0.00,,,-99.99,Weather View 32 v60,2013-11-11 22:05:00,
2013-11-11 16:15:00,23.0,4.8,30.56,NW,315,4.0,18.0,45,0.00,,,-99.99,Weather View 32 v60,2013-11-11 22:15:00,
2013-11-11 16:20:00,22.0,4.4,30.56,North,0,8.0,18.0,46,0.00,,,-99.99,Weather View 32 v60,2013-11-11 22:20:00,
2013-11-11 16:30:00,22.0,4.4,30.57,NNE,22,8.0,18.0,46,0.00,,,-99.99,Weather View 32 v60,2013-11-11 22:30:00,
2013-11-11 16:35:00,22.0,4.8,30.57,NNE,22,5.0,18.0,47,0.00,,,-99.99,Weather View 32 v60,2013-11-11 22:35:00,
2013-11-11 16:40:00,22.0,4.8,30.57,NNW,338,5.0,18.0,47,0.00,,,-99.99,Weather View 32 v60,2013-11-11 22:40:00,
2013-11-11 16:45:00,22.0,4.8,30.57,North,0,5.0,18.0,47,0.00,,,-99.99,Weather View 32 v60,2013-11-11 22:45:00,
2013-11-11 16:50:00,21.0,4.4,30.58,NNW,338,5.0,18.0,48,0.00,,,-99.99,Weather View 32 v60,2013-11-11 22:50:00,
2013-11-11 16:55:00,21.0,4.4,30.58,NNE,22,4.0,18.0,48,0.00,,,-99.99,Weather View 32 v60,2013-11-11 22:55:00,
2013-11-11 17:00:00,21.0,4.4,30.58,NNE,22,4.0,18.0,48,0.00,,,-99.99,Weather View 32 v60,2013-11-11 23:00:00,
2013-11-11 17:05:00,21.0,4.8,30.58,NNE,22,2.0,18.0,49,0.00,,,-99.99,Weather View 32 v60,2013-11-11 23:05:00,
2013-11-11 17:10:00,21.0,4.8,30.59,North,0,1.0,18.0,49,0.00,,,-99.99,Weather View 32 v60,2013-11-11 23:10:00,
2013-11-11 17:15:00,20.0,3.9,30.59,North,0,4.0,14.0,49,0.00,,,-99.99,Weather View 32 v60,2013-11-11 23:15:00,
2013-11-11 17:25:00,20.0,4.3,30.59,NNE,22,6.0,13.0,50,0.00,,,-99.99,Weather View 32 v60,2013-11-11 23:25:00,
2013-11-11 17:30:00,20.0,4.3,30.60,NE,45,6.0,12.0,50,0.00,,,-99.99,Weather View 32 v60,2013-11-11 23:30:00,
2013-11-11 17:35:00,20.0,4.3,30.60,NNE,22,5.0,12.0,50,0.00,,,-99.99,Weather View 32 v60,2013-11-11 23:35:00,
2013-11-11 17:40:00,20.0,4.8,30.60,North,0,4.0,12.0,51,0.00,,,-99.99,Weather View 32 v60,2013-11-11 23:40:00,
2013-11-11 17:45:00,19.0,3.8,30.61,NNW,338,4.0,11.0,51,0.00,,,-99.99,Weather View 32 v60,2013-11-11 23:45:00,
2013-11-11 17:55:00,19.0,3.8,30.61,North,0,5.0,11.0,51,0.00,,,-99.99,Weather View 32 v60,2013-11-11 23:55:00,
2013-11-11 18:00:00,19.0,3.8,30.61,NNE,22,5.0,11.0,51,0.00,,,-99.99,Weather View 32 v60,2013-11-12 00:00:00,
2013-11-11 18:05:00,19.0,4.3,30.61,NNW,338,3.0,11.0,52,0.00,,,-99.99,Weather View 32 v60,2013-11-12 00:05:00,
2013-11-11 18:10:00,19.0,4.3,30.62,NNW,338,5.0,11.0,52,0.00,,,-99.99,Weather View 32 v60,2013-11-12 00:10:00,
2013-11-11 18:15:00,19.0,4.7,30.62,North,0,5.0,11.0,53,0.00,,,-99.99,Weather View 32 v60,2013-11-12 00:15:00,
2013-11-11 18:20:00,18.0,3.8,30.62,North,0,3.0,11.0,53,0.00,,,-99.99,Weather View 32 v60,2013-11-12 00:20:00,
2013-11-11 18:25:00,18.0,4.2,30.62,North,0,5.0,11.0,54,0.00,,,-99.99,Weather View 32 v60,2013-11-12 00:25:00,
2013-11-11 18:30:00,18.0,4.2,30.62,NNE,22,3.0,11.0,54,0.00,,,-99.99,Weather View 32 v60,2013-11-12 00:30:00,
2013-11-11 18:35:00,18.0,4.2,30.63,North,0,3.0,8.0,54,0.00,,,-99.99,Weather View 32 v60,2013-11-12 00:35:00,
2013-11-11 18:40:00,18.0,4.6,30.63,NNE,22,3.0,8.0,55,0.00,,,-99.99,Weather View 32 v60,2013-11-12 00:40:00,
2013-11-11 18:45:00,18.0,4.6,30.63,NNE,22,4.0,8.0,55,0.00,,,-99.99,Weather View 32 v60,2013-11-12 00:45:00,
2013-11-11 18:50:00,18.0,4.9,30.64,North,0,3.0,8.0,56,0.00,,,-99.99,Weather View 32 v60,2013-11-12 00:50:00,
2013-11-11 18:55:00,17.0,4.0,30.64,NW,315,3.0,8.0,56,0.00,,,-99.99,Weather View 32 v60,2013-11-12 00:55:00,
2013-11-11 19:00:00,17.0,4.0,30.64,North,0,5.0,8.0,56,0.00,,,-99.99,Weather View 32 v60,2013-11-12 01:00:00,
2013-11-11 19:05:00,17.0,4.4,30.64,North,0,5.0,8.0,57,0.00,,,-99.99,Weather View 32 v60,2013-11-12 01:05:00,
2013-11-11 19:10:00,17.0,4.4,30.64,North,0,4.0,7.0,57,0.00,,,-99.99,Weather View 32 v60,2013-11-12 01:10:00,
2013-11-11 19:15:00,17.0,4.4,30.65,North,0,3.0,7.0,57,0.00,,,-99.99,Weather View 32 v60,2013-11-12 01:15:00,
2013-11-11 19:20:00,17.0,4.8,30.65,NNW,338,7.0,8.0,58,0.00,,,-99.99,Weather View 32 v60,2013-11-12 01:20:00,
2013-11-11 19:25:00,17.0,4.8,30.65,North,0,5.0,8.0,58,0.00,,,-99.99,Weather View 32 v60,2013-11-12 01:25:00,
2013-11-11 19:30:00,16.0,4.2,30.66,NNE,22,6.0,10.0,59,0.00,,,-99.99,Weather View 32 v60,2013-11-12 01:30:00,
2013-11-11 19:35:00,16.0,4.2,30.66,NE,45,4.0,10.0,59,0.00,,,-99.99,Weather View 32 v60,2013-11-12 01:35:00,
2013-11-11 19:40:00,16.0,4.2,30.66,NNE,22,4.0,11.0,59,0.00,,,-99.99,Weather View 32 v60,2013-11-12 01:40:00,
2013-11-11 19:45:00,16.0,4.2,30.67,NNE,22,6.0,11.0,59,0.00,,,-99.99,Weather View 32 v60,2013-11-12 01:45:00,
2013-11-11 19:50:00,16.0,4.2,30.67,North,0,6.0,14.0,59,0.00,,,-99.99,Weather View 32 v60,2013-11-12 01:50:00,
2013-11-11 19:55:00,17.0,5.5,30.67,NNE,22,4.0,14.0,60,0.00,,,-99.99,Weather View 32 v60,2013-11-12 01:55:00,
2013-11-11 20:00:00,17.0,5.5,30.67,NNE,22,3.0,14.0,60,0.00,,,-99.99,Weather View 32 v60,2013-11-12 02:00:00,
2013-11-11 20:05:00,16.0,4.6,30.68,North,0,6.0,14.0,60,0.00,,,-99.99,Weather View 32 v60,2013-11-12 02:05:00,
2013-11-11 20:10:00,16.0,4.6,30.68,NE,45,5.0,14.0,60,0.00,,,-99.99,Weather View 32 v60,2013-11-12 02:10:00,
2013-11-11 20:15:00,16.0,4.6,30.68,North,0,8.0,14.0,60,0.00,,,-99.99,Weather View 32 v60,2013-11-12 02:15:00,
2013-11-11 20:20:00,16.0,4.6,30.68,NNE,22,7.0,14.0,60,0.00,,,-99.99,Weather View 32 v60,2013-11-12 02:20:00,
2013-11-11 20:25:00,16.0,4.6,30.69,NE,45,3.0,14.0,60,0.00,,,-99.99,Weather View 32 v60,2013-11-12 02:25:00,
2013-11-11 20:30:00,16.0,4.6,30.69,NNE,22,3.0,14.0,60,0.00,,,-99.99,Weather View 32 v60,2013-11-12 02:30:00,
2013-11-11 20:35:00,16.0,4.9,30.69,North,0,3.0,14.0,61,0.00,,,-99.99,Weather View 32 v60,2013-11-12 02:35:00,
2013-11-11 20:40:00,16.0,4.9,30.69,NE,45,4.0,14.0,61,0.00,,,-99.99,Weather View 32 v60,2013-11-12 02:40:00,
2013-11-11 20:45:00,16.0,4.9,30.70,North,0,5.0,14.0,61,0.00,,,-99.99,Weather View 32 v60,2013-11-12 02:45:00,
2013-11-11 20:50:00,15.0,4.3,30.70,North,0,7.0,13.0,62,0.00,,,-99.99,Weather View 32 v60,2013-11-12 02:50:00,
2013-11-11 21:00:00,15.0,4.3,30.70,NNE,22,5.0,13.0,62,0.00,,,-99.99,Weather View 32 v60,2013-11-12 03:00:00,
2013-11-11 21:05:00,15.0,4.3,30.70,NNE,22,2.0,11.0,62,0.00,,,-99.99,Weather View 32 v60,2013-11-12 03:05:00,
2013-11-11 21:10:00,15.0,4.3,30.71,NNW,338,2.0,11.0,62,0.00,,,-99.99,Weather View 32 v60,2013-11-12 03:10:00,
2013-11-11 21:15:00,15.0,4.7,30.71,North,0,1.0,11.0,63,0.00,,,-99.99,Weather View 32 v60,2013-11-12 03:15:00,
2013-11-11 21:20:00,15.0,4.7,30.71,NNE,22,3.0,11.0,63,0.00,,,-99.99,Weather View 32 v60,2013-11-12 03:20:00,
2013-11-11 21:25:00,15.0,4.7,30.71,NNW,338,3.0,11.0,63,0.00,,,-99.99,Weather View 32 v60,2013-11-12 03:25:00,
2013-11-11 21:30:00,14.0,3.7,30.71,NNW,338,1.0,11.0,63,0.00,,,-99.99,Weather View 32 v60,2013-11-12 03:30:00,
2013-11-11 21:35:00,14.0,3.7,30.71,NNW,338,2.0,11.0,63,0.00,,,-99.99,Weather View 32 v60,2013-11-12 03:35:00,
2013-11-11 21:40:00,14.0,3.7,30.72,North,0,1.0,11.0,63,0.00,,,-99.99,Weather View 32 v60,2013-11-12 03:40:00,
2013-11-11 21:45:00,14.0,3.7,30.72,North,0,0.0,11.0,63,0.00,,,-99.99,Weather View 32 v60,2013-11-12 03:45:00,
2013-11-11 21:50:00,14.0,3.7,30.72,NNE,22,1.0,8.0,63,0.00,,,-99.99,Weather View 32 v60,2013-11-12 03:50:00,
2013-11-11 21:55:00,14.0,4.1,30.72,NNW,338,1.0,8.0,64,0.00,,,-99.99,Weather View 32 v60,2013-11-12 03:55:00,
2013-11-11 22:00:00,13.0,3.1,30.72,West,270,0.0,8.0,64,0.00,,,-99.99,Weather View 32 v60,2013-11-12 04:00:00,
2013-11-11 22:05:00,13.0,3.1,30.73,North,0,1.0,8.0,64,0.00,,,-99.99,Weather View 32 v60,2013-11-12 04:05:00,
2013-11-11 22:10:00,13.0,3.1,30.73,North,0,1.0,8.0,64,0.00,,,-99.99,Weather View 32 v60,2013-11-12 04:10:00,
2013-11-11 22:15:00,13.0,3.1,30.73,WNW,292,0.0,5.0,64,0.00,,,-99.99,Weather View 32 v60,2013-11-12 04:15:00,
2013-11-11 22:20:00,13.0,3.1,30.73,NNW,338,1.0,5.0,64,0.00,,,-99.99,Weather View 32 v60,2013-11-12 04:20:00,
2013-11-11 22:25:00,11.0,2.5,30.73,NNW,338,1.0,3.0,68,0.00,,,-99.99,Weather View 32 v60,2013-11-12 04:25:00,
2013-11-11 22:30:00,12.0,2.5,30.73,North,0,0.0,3.0,65,0.00,,,-99.99,Weather View 32 v60,2013-11-12 04:30:00,
2013-11-11 22:35:00,12.0,2.5,30.73,NW,315,0.0,3.0,65,0.00,,,-99.99,Weather View 32 v60,2013-11-12 04:35:00,
2013-11-11 22:40:00,12.0,2.5,30.73,West,270,0.0,3.0,65,0.00,,,-99.99,Weather View 32 v60,2013-11-12 04:40:00,
2013-11-11 22:45:00,10.0,1.9,30.74,NNW,338,1.0,3.0,69,0.00,,,-99.99,Weather View 32 v60,2013-11-12 04:45:00,
2013-11-11 22:50:00,12.0,2.8,30.73,WNW,292,0.0,3.0,66,0.00,,,-99.99,Weather View 32 v60,2013-11-12 04:50:00,
2013-11-11 22:55:00,12.0,2.8,30.73,NW,315,1.0,3.0,66,0.00,,,-99.99,Weather View 32 v60,2013-11-12 04:55:00,
2013-11-11 23:00:00,10.0,2.2,30.74,West,270,0.0,3.0,70,0.00,,,-99.99,Weather View 32 v60,2013-11-12 05:00:00,
2013-11-11 23:05:00,10.0,2.2,30.74,SW,225,0.0,3.0,70,0.00,,,-99.99,Weather View 32 v60,2013-11-12 05:05:00,
2013-11-11 23:10:00,10.0,2.2,30.74,WSW,248,0.0,3.0,70,0.00,,,-99.99,Weather View 32 v60,2013-11-12 05:10:00,
2013-11-11 23:15:00,10.0,2.2,30.75,WNW,292,0.0,3.0,70,0.00,,,-99.99,Weather View 32 v60,2013-11-12 05:15:00,
2013-11-11 23:20:00,10.0,2.2,30.75,WSW,248,0.0,3.0,70,0.00,,,-99.99,Weather View 32 v60,2013-11-12 05:20:00,
2013-11-11 23:25:00,9.0,1.2,30.75,NW,315,1.0,3.0,70,0.00,,,-99.99,Weather View 32 v60,2013-11-12 05:25:00,
2013-11-11 23:30:00,9.0,1.2,30.75,NW,315,1.0,3.0,70,0.00,,,-99.99,Weather View 32 v60,2013-11-12 05:30:00,
2013-11-11 23:35:00,9.0,1.5,30.75,NW,315,1.0,3.0,71,0.00,,,-99.99,Weather View 32 v60,2013-11-12 05:35:00,
2013-11-11 23:40:00,9.0,1.5,30.75,WNW,292,1.0,3.0,71,0.00,,,-99.99,Weather View 32 v60,2013-11-12 05:40:00,
2013-11-11 23:45:00,9.0,1.5,30.75,NW,315,2.0,3.0,71,0.00,,,-99.99,Weather View 32 v60,2013-11-12 05:45:00,
2013-11-11 23:50:00,9.0,1.5,30.75,NW,315,1.0,3.0,71,0.00,,,-99.99,Weather View 32 v60,2013-11-12 05:50:00,
2013-11-11 23:55:00,9.0,1.8,30.75,WNW,292,1.0,3.0,72,0.00,,,-99.99,Weather View 32 v60,2013-11-12 05:55:00,